OneWeb SL0238

operational
NORAD ID: 48784 Int'l Des: 2021-045 Owner: ONEWEBN Country: UK Constellation: oneweb
LEOCIRCULARPOLARONEWEB_TYPE

About OneWeb SL0238

Description loading...

Live Position

Loading 3D Globe...

Upcoming Passes

Altitude History

Altitude vs Time

uPlot chart will show altitude changes over time

Two-Line Element Set

1 48784U 21045T 26037.11492762 .00000084 00000-0 18842-3 0 9991
2 48784 87.8988 285.3389 0001869 90.9397 269.1947 13.15548483227146
Epoch: Feb 6, 2026 • Age: 9 hours

Current Status

Altitude 1203.9 km
Velocity 7.25 km/s
Sub-Earth Point 22.04°N, 30.47°W
Launch Date May 28, 2021
Age 4.6 years
Type internet

Technical Details

Classification Payload
Mass 148.00 kg
Dry Mass 140.00 kg
Total Mass 148.00 kg
Length 1.30 m
Diameter 1.00 m
Span 5.00 m
Shape Trapezoid+2 pan
Manufacturer ONEWUS
Bus Type ARROW
Phase Status In Orbit
Owner/State ONEWEBN/UK

Large Constellations

Loading constellations...